Edinburgh Airport, United Kingdom

1:58 AM BST on April 27, 2017 (GMT +0100)
Edinburgh Airport

Weather History for EGPH - October, 2012

Change the Weather History Date:

Wednesday, October 3, 2012

  Actual Average Record
Temperature  
Mean Temperature 48 °F -  
Max Temperature 55 °F 55 °F 68 °F (2000)
Min Temperature 41 °F 42 °F 32 °F (2015)
Degree Days  
Heating Degree Days 17    
Moisture  
Dew Point 42 °F    
Average Humidity 84    
Maximum Humidity 93    
Minimum Humidity 58    
Precipitation  
Precipitation 0.00 in 0.09 in - ()
Sea Level Pressure  
Sea Level Pressure 29.38 in    
Wind  
Wind Speed 11 mph ()    
Max Wind Speed 17 mph    
Max Gust Speed -    
Visibility 6.2 miles    
Events Rain    
Averages and records for this station are not official NWS values.
T = Trace of Precipitation, MM = Missing Value Source: Averaged Metar Reports

Daily Weather History Graph

Daily Weather History Graph

Search for Another Location

Airport or City:

Trip Planner

Search our weather history database for the weather conditions in past years. The results will help you decide how hot, cold, wet, or windy it might be!

Date:

Astronomy

Oct. 03, 2012 Rise Set
Actual Time 7:20 AM BST 6:42 PM BST
Civil Twilight 6:43 AM BST 7:19 PM BST
Nautical Twilight 6:00 AM BST 8:02 PM BST
Astronomical Twilight 5:16 AM BST 8:46 PM BST
Moon 7:39 PM BST (10/3) 11:14 AM BST (10/3)
Length of Visible Light 12h 35m
Length of Day
11h 21m
Waning Gibbous, 90% of the Moon is Illuminated
Oct 3
Waning Gibbous
Oct 8
Last Quarter
Oct 15
New
Oct 22
First Quarter
Oct 29
Full

Hourly Weather History & Observations

Time (BST) Temp. Windchill Dew Point Humidity Pressure Visibility Wind Dir Wind Speed Gust Speed Precip Events Conditions
12:20 AM 46.4 °F 42.4 °F 42.8 °F 87% 29.30 in 6.2 mi SSW 8.1 mph - N/A   Mostly Cloudy
12:50 AM 46.4 °F 40.1 °F 42.8 °F 87% 29.30 in 6.2 mi SW 15.0 mph - N/A   Mostly Cloudy
1:20 AM 46.4 °F 41.1 °F 41.0 °F 81% 29.30 in 6.2 mi SW 11.5 mph - N/A   Mostly Cloudy
1:50 AM 46.4 °F 41.5 °F 42.8 °F 87% 29.27 in 6.2 mi SW 10.4 mph - N/A   Mostly Cloudy
2:20 AM 46.4 °F 40.7 °F 42.8 °F 87% 29.27 in 6.2 mi SW 12.7 mph - N/A   Mostly Cloudy
2:50 AM 46.4 °F 40.7 °F 42.8 °F 87% 29.27 in 6.2 mi WSW 12.7 mph - N/A   Mostly Cloudy
3:20 AM 46.4 °F 40.7 °F 42.8 °F 87% 29.27 in 6.2 mi WSW 12.7 mph - N/A   Overcast
3:50 AM 44.6 °F 38.1 °F 42.8 °F 93% 29.30 in 6.2 mi WSW 13.8 mph - N/A Rain Rain
4:20 AM 44.6 °F 37.4 °F 42.8 °F 93% 29.30 in 6.2 mi WSW 16.1 mph - N/A Rain Light Rain
4:50 AM 44.6 °F 37.2 °F 41.0 °F 87% 29.30 in 6.2 mi WSW 17.3 mph - N/A Rain Light Rain
5:20 AM 44.6 °F 39.2 °F 41.0 °F 87% 29.30 in 6.2 mi WSW 10.4 mph - N/A Rain Light Rain
5:50 AM 44.6 °F 38.8 °F 41.0 °F 87% 29.30 in 6.2 mi WSW 11.5 mph - N/A Rain Light Rain Showers
6:20 AM 44.6 °F 40.2 °F 41.0 °F 87% 29.33 in 6.2 mi West 8.1 mph - N/A Rain Light Rain
6:50 AM 44.6 °F 38.8 °F 42.8 °F 93% 29.33 in 6.2 mi WSW 11.5 mph - N/A   Mostly Cloudy
7:20 AM 44.6 °F 39.2 °F 42.8 °F 93% 29.33 in 6.2 mi WSW 10.4 mph - N/A   Scattered Clouds
7:50 AM 44.6 °F 38.4 °F 41.0 °F 87% 29.36 in 6.2 mi WSW 12.7 mph - N/A   Partly Cloudy
8:20 AM 44.6 °F 39.2 °F 42.8 °F 93% 29.36 in 6.2 mi WSW 10.4 mph - N/A   Partly Cloudy
8:50 AM 46.4 °F 41.1 °F 42.8 °F 87% 29.36 in 6.2 mi WSW 11.5 mph - N/A   Scattered Clouds
9:20 AM 48.2 °F - 42.8 °F 82% 29.36 in 6.2 mi WSW 13.8 mph - N/A   Partly Cloudy
9:50 AM 48.2 °F - 44.6 °F 87% 29.36 in 6.2 mi WSW 15.0 mph - N/A   Partly Cloudy
10:20 AM 50.0 °F - 44.6 °F 82% 29.39 in 6.2 mi WSW 15.0 mph - N/A   Partly Cloudy
10:50 AM 50.0 °F - 44.6 °F 82% 29.39 in 6.2 mi WSW 16.1 mph - N/A   Partly Cloudy
11:20 AM 50.0 °F - 44.6 °F 82% 29.39 in 6.2 mi SW 17.3 mph - N/A   Scattered Clouds
11:50 AM 51.8 °F - 44.6 °F 76% 29.39 in 6.2 mi WSW 13.8 mph - N/A   Partly Cloudy
12:20 PM 51.8 °F - 44.6 °F 76% 29.39 in 6.2 mi SW 16.1 mph - N/A   Scattered Clouds
12:50 PM 53.6 °F - 46.4 °F 77% 29.39 in 6.2 mi WSW 16.1 mph - N/A   Scattered Clouds
1:20 PM 53.6 °F - 44.6 °F 72% 29.39 in 6.2 mi SW 13.8 mph - N/A   Scattered Clouds
1:50 PM 53.6 °F - 42.8 °F 67% 29.39 in 6.2 mi WSW 17.3 mph - N/A   Scattered Clouds
2:20 PM 53.6 °F - 42.8 °F 67% 29.42 in 6.2 mi WSW 17.3 mph - N/A   Scattered Clouds
3:20 PM 55.4 °F - 41.0 °F 58% 29.42 in 6.2 mi WSW 13.8 mph - N/A   Scattered Clouds
3:50 PM 51.8 °F - 41.0 °F 67% 29.42 in 6.2 mi West 12.7 mph - N/A   Mostly Cloudy
4:20 PM 51.8 °F - 41.0 °F 67% 29.42 in 6.2 mi West 12.7 mph - N/A   Mostly Cloudy
4:50 PM 50.0 °F - 41.0 °F 71% 29.42 in 6.2 mi West 11.5 mph - N/A   Mostly Cloudy
5:20 PM 48.2 °F - 42.8 °F 82% 29.42 in 6.2 mi WSW 10.4 mph - N/A   Mostly Cloudy
5:50 PM 48.2 °F - 42.8 °F 82% 29.44 in 6.2 mi WSW 9.2 mph - N/A   Scattered Clouds
6:20 PM 48.2 °F - 42.8 °F 82% 29.44 in 6.2 mi WSW 5.8 mph - N/A   Scattered Clouds
6:50 PM 46.4 °F 42.9 °F 42.8 °F 87% 29.44 in 6.2 mi WSW 6.9 mph - N/A   Scattered Clouds
7:20 PM 44.6 °F 40.7 °F 41.0 °F 87% 29.44 in 6.2 mi WSW 6.9 mph - N/A   Scattered Clouds
7:50 PM 44.6 °F 40.7 °F 41.0 °F 87% 29.47 in 6.2 mi WSW 6.9 mph - N/A   Unknown
8:20 PM 42.8 °F 37.5 °F 41.0 °F 93% 29.47 in - WSW 9.2 mph - N/A   Clear
8:50 PM 44.6 °F 39.7 °F 41.0 °F 87% 29.47 in - WSW 9.2 mph - N/A   Clear
9:20 PM 42.8 °F 39.3 °F 41.0 °F 93% 29.47 in - WSW 5.8 mph - N/A   Clear
9:50 PM 41.0 °F 37.1 °F 39.2 °F 93% 29.50 in - WSW 5.8 mph - N/A   Clear
10:20 PM 41.0 °F 37.1 °F 39.2 °F 93% 29.50 in - WSW 5.8 mph - N/A   Clear
10:50 PM 42.8 °F 40.1 °F 39.2 °F 87% 29.50 in - West 4.6 mph - N/A   Clear
11:20 PM 42.8 °F 39.3 °F 39.2 °F 87% 29.50 in - West 5.8 mph - N/A   Clear
11:50 PM 41.0 °F 36.4 °F 39.2 °F 93% 29.50 in - WSW 6.9 mph - N/A   Clear